Theta_e
320 318 320 322 323 321 320 323 324 325 326 324 324 321 326 336 338 344 345 340 337 341 339 335 335 341 342 343 342 342 341 339 337 333 334 334 334 335 338 337 337 335 334 331 327 328 330 330 329
321 319 322 323 322 322 325 325 325 326 325 336 340 331 338 332 346 347 345 342 342 342 340 339 332 337 341 342 342 343 342 339 336 335 334 334 334 335 336 335 335 335 334 331 328 328 331 331 330
319 319 324 322 321 322 326 325 326 326 325 340 338 341 342 346 346 345 345 343 343 343 340 341 332 333 338 339 341 342 341 339 338 336 335 333 332 333 334 335 335 334 332 329 328 328 331 332 333
320 320 321 322 321 321 325 326 326 327 327 335 336 335 339 340 343 345 344 344 344 344 341 338 331 332 334 334 335 340 340 340 339 335 331 331 332 332 333 334 335 333 331 325 324 325 328 332 332
320 323 323 322 322 322 322 324 326 326 327 336 336 334 339 340 346 344 342 343 343 344 343 335 332 331 331 331 332 337 338 338 333 331 331 331 331 330 332 332 333 331 328 324 323 323 323 323 325
322 323 324 323 321 321 322 325 326 326 326 335 337 337 339 340 346 347 341 341 343 345 345 340 333 332 331 330 331 333 332 331 330 331 331 331 329 328 331 330 330 328 325 323 323 323 323 323 323
323 324 324 324 323 322 323 326 327 326 327 329 337 337 342 342 346 348 346 342 343 346 345 343 341 335 333 332 331 330 330 331 332 333 332 332 330 327 327 327 326 325 324 324 323 323 323 323 323
323 323 324 324 323 323 324 326 326 327 327 333 337 332 339 339 346 349 348 346 344 344 346 345 342 342 341 335 333 332 332 332 332 333 333 333 330 328 327 326 325 325 325 324 324 325 326 327 327
322 323 324 324 324 323 325 327 326 326 327 331 335 338 335 341 346 348 347 346 345 344 345 345 345 343 344 343 338 334 334 334 334 335 334 333 336 334 331 333 326 326 326 327 328 328 328 328 328
323 325 325 324 323 323 324 326 326 326 327 327 335 338 338 344 346 347 347 346 345 343 343 344 345 345 344 343 342 341 340 339 339 339 338 338 338 337 334 334 327 329 331 331 332 331 329 328 332
323 325 325 324 323 323 324 325 325 326 327 327 333 336 341 343 345 346 345 345 343 341 342 342 344 345 344 342 343 342 342 342 341 342 341 340 340 338 335 335 333 334 334 335 335 335 335 335 333
325 324 324 324 324 324 325 325 325 325 327 326 325 325 338 344 346 345 344 344 342 341 341 341 342 344 344 342 343 343 342 343 343 342 342 341 340 338 336 335 335 336 335 337 337 337 338 337 336
325 324 324 324 324 324 324 325 324 325 326 326 325 324 334 341 343 344 344 344 343 342 341 341 341 342 342 342 342 342 342 342 343 343 342 340 339 338 337 336 335 335 335 336 338 339 338 338 338
324 324 324 324 324 324 324 324 324 324 325 326 325 325 329 334 339 342 344 345 345 344 342 341 341 341 341 341 341 342 341 341 342 342 343 339 339 339 337 336 334 334 334 336 338 339 339 339 339
324 325 324 324 324 324 324 325 325 325 325 325 326 326 326 329 332 339 343 343 345 344 343 342 340 340 340 340 340 339 340 339 340 341 340 337 340 339 336 335 334 333 335 338 339 340 340 340 340
325 325 327 326 325 324 324 326 325 325 325 325 325 326 326 326 329 332 339 341 342 344 343 342 341 340 340 339 340 338 337 338 338 338 338 340 339 339 337 334 333 333 335 337 339 340 340 340 340
326 327 327 326 324 325 324 325 324 325 325 325 326 326 327 327 327 328 332 338 340 343 344 342 341 340 340 339 339 338 337 337 336 336 337 339 339 338 335 334 333 334 337 340 340 340 340 339 338
326 326 326 327 325 323 325 325 325 325 325 325 325 326 326 327 326 327 329 333 338 342 344 345 342 340 340 339 339 338 337 337 336 335 335 338 337 336 335 333 336 337 338 339 339 339 339 339 339
324 326 326 325 324 323 325 326 325 325 325 325 325 325 325 326 326 325 324 329 332 339 344 346 345 343 341 341 341 340 338 337 336 335 334 335 334 334 334 336 338 339 339 338 340 340 340 339 338
325 326 326 324 323 324 324 325 325 325 325 325 325 325 325 325 325 325 324 323 330 333 341 345 346 346 343 342 342 341 340 337 336 334 334 334 335 335 336 337 339 340 340 341 341 341 340 339 336
325 326 325 325 324 324 324 326 326 325 325 326 325 326 326 326 326 325 325 324 328 332 337 342 345 346 345 343 342 342 339 337 336 334 334 335 337 338 338 340 341 341 341 341 341 339 339 337 332
327 323 323 324 325 328 324 327 324 323 323 324 325 326 325 326 325 325 326 326 327 331 335 339 342 345 345 344 343 341 338 337 335 335 336 339 340 341 341 341 339 338 338 338 337 336 334 333 331
323 321 323 324 325 325 323 324 324 323 323 323 324 324 325 326 326 326 326 325 325 328 332 337 340 343 344 344 343 342 339 338 337 338 338 339 340 339 339 339 339 338 336 334 331 330 332 330 331
320 321 321 323 323 327 324 324 325 324 324 325 323 323 324 325 325 325 325 325 325 328 334 337 339 342 344 344 343 342 341 340 340 339 337 337 336 337 337 336 333 331 330 330 329 328 326 325 324
321 324 335 334 330 330 323 324 326 325 324 324 324 323 324 324 325 325 325 325 325 328 334 337 339 341 343 344 343 343 342 342 341 338 334 331 331 329 329 330 329 328 326 324 323 322 321 320 319
326 328 332 333 333 330 325 328 329 326 325 325 324 322 323 324 325 325 325 326 327 331 336 338 339 341 343 343 344 343 342 341 340 338 335 332 332 332 329 326 323 321 319 317 315 313 312 312 312
326 331 327 328 328 329 328 327 325 324 324 324 324 323 323 324 324 326 325 325 326 331 335 340 339 340 342 340 340 341 339 339 339 335 332 331 330 325 323 320 317 314 313 312 310 309 309 308 308
324 324 328 325 337 335 330 329 329 326 326 325 324 323 323 324 324 325 325 326 327 331 333 338 339 340 338 337 336 336 336 335 329 326 325 325 322 319 316 314 312 310 310 309 308 307 306 306 304
327 328 327 325 329 332 330 328 326 326 325 326 325 324 324 324 324 325 327 327 330 331 333 335 336 335 331 330 330 330 326 327 324 324 323 319 317 315 313 311 310 309 308 307 307 305 304 304 302
324 325 325 331 332 330 331 334 325 325 325 325 324 324 324 323 324 325 327 326 328 329 332 331 330 328 328 327 325 323 321 321 320 320 318 316 314 313 311 310 308 307 307 306 305 303 302 301 301
Wind_Speed
6 5 5 6 6 6 5 5 2 5 4 3 2 6 8 4 5 2 4 9 25 30 32 33 30 27 26 28 33 30 28 27 27 26 24 22 20 19 17 16 15 14 13 12 12 12 12 12 13
8 5 7 3 7 9 7 6 5 2 2 2 4 8 8 9 3 6 11 13 26 28 30 29 31 29 28 30 30 29 28 27 26 25 23 21 19 17 16 15 14 13 12 12 11 12 12 12 12
7 6 6 4 6 10 6 6 1 5 2 7 5 4 1 3 4 8 5 19 27 27 29 29 33 30 29 28 28 29 28 26 26 25 23 20 18 17 16 14 14 13 12 11 11 11 11 11 11
8 7 4 8 9 3 1 4 3 4 3 10 3 4 4 1 4 5 17 24 26 27 27 31 34 32 30 28 28 29 28 27 25 24 23 20 17 16 15 14 13 13 12 11 11 11 10 9 8
7 3 7 10 9 2 5 2 3 4 3 8 7 3 3 7 9 15 19 25 27 26 25 35 34 33 31 30 30 30 29 27 25 24 21 19 18 16 15 15 13 13 12 11 11 10 9 7 6
6 4 8 11 10 6 6 3 3 1 5 6 6 4 5 11 14 18 21 25 25 25 25 29 34 33 32 31 31 30 29 27 25 24 21 19 17 17 17 16 14 12 12 11 11 10 9 7 6
13 8 11 9 5 9 7 4 4 3 6 8 2 5 5 10 12 18 20 22 24 24 25 26 28 31 30 30 29 29 28 27 25 23 21 19 17 17 16 15 14 13 12 12 11 10 8 7 6
7 6 11 10 9 8 11 6 3 2 4 1 3 5 6 14 16 17 20 21 22 22 25 26 27 26 26 28 28 28 27 26 24 22 21 19 17 16 15 15 14 13 12 12 11 9 7 5 4
5 7 11 13 10 7 8 8 4 3 7 3 5 1 4 19 20 20 20 20 22 22 25 26 26 26 25 23 25 26 25 25 23 22 21 20 15 14 14 13 13 12 11 10 9 8 7 4 2
12 11 13 4 9 6 9 8 1 5 9 7 8 6 9 19 21 21 21 22 24 26 26 26 26 26 26 24 23 22 21 21 21 21 21 18 15 14 13 12 13 12 11 10 8 6 5 4 3
12 15 11 8 9 9 10 9 5 9 12 7 9 10 12 17 19 19 20 22 26 27 27 27 26 26 26 25 24 23 22 21 21 21 20 17 16 14 14 12 12 11 11 8 7 5 4 4 3
12 15 13 9 10 11 12 9 12 13 12 6 1 5 11 15 17 19 19 21 24 27 27 26 27 27 27 24 25 24 23 22 22 22 20 18 16 15 15 13 13 12 11 10 8 7 4 3 3
19 17 11 16 12 13 12 13 14 19 16 11 6 7 11 14 15 18 19 20 23 26 27 28 28 27 27 26 24 23 24 23 20 22 25 20 18 17 15 13 13 12 10 10 9 8 5 4 3
11 20 14 13 16 15 16 16 14 16 19 16 10 11 13 14 14 17 21 22 24 24 27 28 29 28 27 27 24 23 24 19 21 21 24 23 19 17 16 14 13 12 11 10 10 9 8 6 5
16 14 14 15 14 12 11 19 23 23 9 13 18 13 14 13 15 18 22 25 27 26 26 30 30 28 27 26 23 22 20 20 20 21 24 25 20 18 16 15 14 13 12 11 10 10 9 8 7
16 18 19 19 20 13 12 19 20 20 18 19 18 17 15 16 17 19 21 24 26 27 30 29 28 29 27 26 23 22 21 21 20 20 20 22 20 18 16 15 14 13 13 12 12 11 10 8 7
17 19 22 19 13 12 19 18 17 19 14 18 18 19 18 16 16 18 21 22 26 29 29 30 30 30 29 26 24 21 21 22 19 20 21 23 21 19 16 15 14 15 14 13 12 10 8 7 7
21 20 21 19 14 15 18 22 13 9 12 15 15 17 19 20 20 21 20 21 24 26 28 28 30 29 29 25 23 22 22 21 20 21 20 20 20 19 18 16 15 16 15 14 13 11 10 10 9
20 24 21 20 19 10 20 22 19 20 16 15 14 15 16 16 19 23 18 21 25 27 30 31 32 31 31 30 29 27 27 24 23 22 20 20 20 20 19 17 16 16 15 14 13 12 12 10 8
24 25 22 14 8 13 19 24 20 20 23 22 21 21 19 18 19 18 22 21 25 29 32 33 34 32 33 31 29 25 24 23 22 20 19 20 20 19 20 18 16 16 15 13 12 12 9 6 6
30 30 24 20 16 18 16 26 30 25 29 26 25 25 24 23 21 20 21 22 26 29 34 36 37 37 36 31 27 23 20 17 21 22 21 22 20 19 19 17 16 15 14 12 12 12 10 7 4
29 28 23 22 19 20 19 21 31 30 29 30 29 27 28 27 25 25 24 22 28 33 36 36 36 37 37 34 31 32 30 26 25 25 23 21 21 19 18 17 16 15 14 14 14 13 12 9 6
29 19 21 20 22 20 24 14 35 22 26 29 28 25 27 27 28 29 28 31 33 31 33 36 37 37 36 37 35 33 28 23 21 22 23 24 22 21 21 20 17 15 14 14 12 10 6 6 5
25 12 18 16 14 18 30 20 37 25 30 26 24 25 27 27 25 25 26 31 28 24 28 32 35 37 37 37 36 33 31 25 25 26 23 28 24 23 23 20 17 17 13 11 9 8 7 5 4
23 21 6 8 10 21 18 20 33 5 11 19 23 27 27 26 24 24 24 20 24 27 30 32 35 35 37 36 36 33 31 29 28 26 27 28 27 20 19 17 16 14 13 13 11 10 8 6 5
22 19 10 12 13 20 18 17 32 21 29 27 27 14 16 20 21 24 25 23 22 24 29 30 33 34 35 34 34 32 30 29 27 28 26 24 22 18 19 18 17 16 15 13 11 9 7 6 6
23 14 24 4 3 4 15 27 23 18 16 15 20 22 24 24 21 21 21 20 24 25 29 32 32 33 32 32 31 31 32 29 27 26 25 23 23 22 21 20 20 17 15 13 11 10 8 6 5
11 20 9 4 9 9 18 25 17 6 17 19 22 21 20 18 17 14 15 17 22 23 25 26 28 29 30 31 31 31 30 28 28 30 27 25 24 24 23 21 19 17 15 13 11 10 8 8 6
9 8 7 9 6 10 15 18 16 12 12 20 18 16 20 21 20 13 11 10 15 16 20 23 24 27 31 32 31 33 28 28 31 29 26 26 27 26 24 21 20 17 15 13 12 9 8 8 7
23 14 10 7 10 15 13 21 11 12 10 7 11 14 13 13 12 10 7 9 13 16 20 20 24 26 29 30 30 29 32 32 32 29 28 28 28 25 25 23 22 18 15 12 11 10 9 9 8
Wind_Direction
190 194 217 226 231 239 198 152 9 205 196 186 148 207 216 348 183 33 128 153 157 159 162 164 165 164 170 169 174 173 172 168 163 159 159 158 154 151 149 146 139 133 128 123 120 119 119 119 120
179 203 219 246 250 215 146 128 200 296 314 217 200 213 234 216 78 101 142 157 161 159 162 164 166 166 166 173 175 175 173 168 165 160 161 160 158 154 152 148 140 136 127 124 126 126 126 125 124
175 208 249 240 243 243 148 168 284 325 235 190 188 249 62 87 111 136 148 154 158 159 162 167 166 168 168 170 172 173 172 169 166 163 163 163 161 159 157 150 143 137 134 134 132 130 131 130 132
186 192 215 245 218 188 140 123 354 304 146 190 214 188 139 87 137 125 146 155 158 159 164 171 167 168 168 168 170 172 171 169 168 167 164 163 163 162 159 153 146 144 146 145 138 136 137 140 140
196 236 234 236 235 164 226 314 326 300 170 192 226 183 130 154 121 134 147 158 160 161 166 169 170 169 169 169 169 171 170 171 170 168 165 164 166 164 164 157 155 153 154 146 143 142 142 145 149
195 265 233 225 198 196 218 243 307 287 190 149 206 196 130 149 150 149 151 160 164 163 166 170 174 174 173 173 172 173 173 173 170 171 167 168 166 165 165 161 160 161 158 154 149 147 146 146 146
248 226 248 272 226 197 191 162 221 315 210 189 224 214 115 172 158 156 156 164 166 167 167 171 173 178 179 177 177 176 175 174 173 175 169 169 168 167 166 165 163 165 163 163 155 151 151 149 148
251 254 243 240 229 198 169 192 209 308 133 136 237 221 166 173 160 154 155 160 169 172 171 172 175 177 179 181 182 180 179 177 177 178 173 170 173 174 170 168 167 167 169 167 159 153 153 153 150
226 237 237 230 230 215 172 205 162 290 260 205 185 311 91 150 156 155 153 159 168 174 176 177 177 178 178 180 184 183 185 181 180 181 178 174 172 176 180 170 180 172 173 171 165 156 157 161 170
216 232 248 215 215 256 189 233 241 241 216 224 206 143 152 161 168 167 166 168 171 175 180 182 181 181 179 180 182 180 185 184 181 184 181 177 183 183 179 187 184 180 178 178 175 172 168 148 202
213 242 242 217 226 215 234 248 244 241 235 220 210 180 173 176 184 186 182 180 178 177 181 184 184 184 182 182 184 184 191 191 192 193 187 186 187 187 182 182 183 189 189 192 189 203 193 201 208
239 230 244 230 207 218 231 270 259 244 241 141 261 267 186 196 192 194 193 185 182 184 186 187 187 186 188 187 187 186 193 194 197 198 193 191 190 190 191 188 190 194 195 197 198 200 203 203 224
229 244 225 237 230 235 252 244 252 252 237 237 266 232 207 208 205 202 202 194 190 190 191 191 190 191 190 189 193 191 195 196 194 193 194 188 192 192 194 192 193 199 194 199 197 196 192 190 203
215 236 231 231 231 241 245 240 236 252 231 236 224 231 213 215 216 203 204 199 196 196 195 194 196 195 193 194 194 193 192 196 195 191 194 193 193 193 194 192 197 202 201 202 198 202 206 212 214
239 239 223 230 230 231 237 244 227 244 222 235 224 219 216 213 219 215 207 208 199 199 195 196 194 196 197 198 196 195 196 197 197 195 201 199 197 195 193 194 198 202 203 201 200 210 217 227 231
222 232 243 227 222 222 212 250 235 232 233 227 233 229 220 216 216 218 214 213 205 199 199 194 196 198 196 198 197 200 202 200 202 200 202 202 201 198 194 197 200 203 206 209 212 215 223 229 240
211 228 225 234 202 211 213 250 241 247 220 227 222 226 224 222 215 227 218 218 211 204 199 197 197 199 199 200 200 201 205 204 203 204 202 199 198 197 197 202 203 200 202 205 208 215 228 233 247
213 222 240 220 195 214 219 244 236 179 217 228 222 217 224 226 228 221 220 218 218 209 205 201 199 199 197 198 202 205 206 206 203 205 202 197 196 197 200 206 203 199 202 204 207 217 223 239 250
241 227 228 219 220 230 237 249 228 243 235 235 229 231 217 224 232 229 224 222 219 213 205 204 200 199 192 194 199 203 205 202 201 202 199 200 198 197 199 206 205 207 213 216 217 223 230 240 252
231 236 230 227 182 232 256 254 251 238 246 244 235 238 240 240 238 236 229 215 216 216 211 206 205 198 199 197 201 206 206 204 205 203 200 201 197 195 196 203 209 211 219 221 217 216 226 234 219
223 225 231 234 211 239 266 272 260 248 241 242 241 246 244 236 237 235 240 218 208 212 210 210 207 201 200 198 195 195 196 198 199 200 199 199 196 197 200 206 211 213 216 219 214 211 215 193 190
224 222 239 239 234 242 219 263 257 253 252 240 232 236 241 237 231 237 232 234 212 205 209 209 208 205 200 196 193 193 188 190 197 193 192 191 196 199 203 207 208 210 213 215 208 199 198 171 161
236 233 217 229 234 251 241 250 261 252 249 247 246 238 234 236 230 228 228 229 225 213 206 207 205 204 200 195 195 194 197 197 191 183 177 177 180 189 191 196 194 193 187 171 162 145 168 167 190
223 221 222 215 229 240 235 234 270 249 247 248 242 241 238 235 232 233 230 229 227 205 201 203 202 202 200 196 196 194 195 190 180 175 167 171 172 171 173 173 164 162 156 158 156 144 154 148 159
205 199 163 188 211 232 223 220 242 169 235 253 252 244 237 241 236 234 231 221 217 204 198 198 197 198 198 197 196 193 195 192 187 177 166 158 163 159 158 157 145 147 148 143 139 133 126 122 129
187 187 176 198 207 233 215 230 238 243 254 252 251 247 246 233 232 235 229 221 211 206 195 197 193 194 196 194 196 189 190 182 186 177 164 167 162 156 154 151 142 139 134 128 127 120 116 113 112
199 203 216 346 358 269 219 237 257 251 258 240 244 241 239 245 233 226 227 231 222 210 201 193 192 191 191 187 185 178 171 179 176 163 163 156 147 149 149 143 137 136 133 131 129 125 118 119 125
187 194 188 183 177 215 231 242 249 236 228 239 244 235 234 237 246 232 228 224 214 203 202 197 192 187 178 175 172 164 169 171 162 156 152 147 147 148 144 140 139 134 130 128 127 129 137 139 129
166 186 191 172 227 225 250 249 239 247 241 244 250 242 241 239 244 229 207 199 200 190 190 192 181 165 161 162 163 165 162 162 152 150 149 148 146 147 145 144 137 137 139 139 135 134 137 129 123
203 191 189 186 186 233 262 267 263 232 236 227 237 247 256 245 216 218 194 176 187 182 182 175 168 160 160 161 161 156 151 146 147 148 148 150 150 150 149 146 143 145 146 144 142 139 142 142 139